Manhattan, KS

12:05 AM CDT on May 01, 2017 (GMT -0500)
Manhattan Regional

Weather History for KMHK - October, 2010

Change the Weather History Date:

Sunday, October 31, 2010

  Actual Average Record
Temperature  
Mean Temperature 52 °F 49 °F  
Max Temperature 61 °F 62 °F 82 °F (2016)
Min Temperature 44 °F 37 °F 26 °F (2006)
Degree Days  
Heating Degree Days 12 16  
Month to date heating degree days 328  
Since 1 July heating degree days 399  
Cooling Degree Days 0 0  
Month to date cooling degree days 24  
Year to date cooling degree days 1361  
Growing Degree Days 2 (Base 50)    
Moisture  
Dew Point 37 °F    
Average Humidity 61    
Maximum Humidity 76    
Minimum Humidity 42    
Precipitation  
Precipitation 0.00 in 0.06 in 1.14 in (1998)
Month to date precipitation 2.22  
Year to date precipitation 29.93  
Sea Level Pressure  
Sea Level Pressure 30.03 in    
Wind  
Wind Speed 11 mph (NE)    
Max Wind Speed 21 mph    
Max Gust Speed 26 mph    
Visibility 10 miles    
Events      
T = Trace of Precipitation, MM = Missing Value Source: NWS Daily Summary

Daily Weather History Graph

Daily Weather History Graph

Search for Another Location

Airport or City:

Trip Planner

Search our weather history database for the weather conditions in past years. The results will help you decide how hot, cold, wet, or windy it might be!

Date:

Astronomy

Oct. 31, 2010 Rise Set
Actual Time 7:53 AM CDT 6:26 PM CDT
Civil Twilight 7:25 AM CDT 6:54 PM CDT
Nautical Twilight 6:53 AM CDT 7:26 PM CDT
Astronomical Twilight 6:22 AM CDT 7:57 PM CDT
Moon 1:23 AM CDT (10/31) 3:01 PM CDT (10/31)
Length of Visible Light 11h 29m
Length of Day
10h 33m
Last Quarter, 37% of the Moon is Illuminated
Oct 31
Last Quarter
Nov 5
New
Nov 13
First Quarter
Nov 21
Full
Nov 28
Last Quarter

Hourly Weather History & Observations

Time (CDT) Temp. Windchill Dew Point Humidity Pressure Visibility Wind Dir Wind Speed Gust Speed Precip Events Conditions
12:52 AM 50.0 °F - 37.0 °F 61% 29.98 in 10.0 mi NNE 5.8 mph - N/A   Clear
1:52 AM 46.0 °F - 37.0 °F 71% 30.01 in 10.0 mi Calm Calm - N/A   Clear
2:52 AM 45.0 °F 40.6 °F 37.0 °F 74% 29.99 in 10.0 mi NE 8.1 mph - N/A   Clear
3:52 AM 45.0 °F 40.6 °F 37.0 °F 74% 29.99 in 10.0 mi NE 8.1 mph - N/A   Clear
4:52 AM 45.0 °F 39.7 °F 37.0 °F 74% 29.97 in 10.0 mi NE 10.4 mph - N/A   Clear
5:52 AM 46.0 °F 39.0 °F 37.0 °F 71% 29.96 in 10.0 mi ENE 17.3 mph - N/A   Clear
6:52 AM 44.6 °F 38.4 °F 37.4 °F 76% 30.00 in 10.0 mi ENE 12.7 mph 20.7 mph N/A   Clear
7:52 AM 44.1 °F 38.1 °F 37.0 °F 76% 30.02 in 10.0 mi NE 11.5 mph - N/A   Clear
8:52 AM 45.0 °F 37.9 °F 37.0 °F 74% 30.03 in 10.0 mi ENE 16.1 mph - N/A   Clear
9:52 AM 46.0 °F 39.6 °F 37.0 °F 71% 30.04 in 10.0 mi ENE 15.0 mph - N/A   Clear
10:52 AM 48.9 °F - 37.0 °F 64% 30.05 in 10.0 mi ENE 16.1 mph - N/A   Clear
11:52 AM 53.1 °F - 37.0 °F 55% 30.04 in 10.0 mi ENE 17.3 mph 25.3 mph N/A   Clear
12:52 PM 55.9 °F - 37.0 °F 49% 30.02 in 10.0 mi ENE 19.6 mph 24.2 mph N/A   Clear
1:52 PM 59.0 °F - 37.0 °F 44% 29.99 in 10.0 mi ENE 17.3 mph - N/A   Clear
2:52 PM 61.0 °F - 37.9 °F 42% 29.98 in 10.0 mi NE 19.6 mph 26.5 mph N/A   Clear
3:52 PM 61.0 °F - 37.9 °F 42% 30.00 in 10.0 mi ENE 17.3 mph - N/A   Clear
4:52 PM 60.1 °F - 37.0 °F 42% 30.01 in 10.0 mi NE 20.7 mph - N/A   Clear
5:52 PM 57.0 °F - 37.0 °F 47% 30.04 in 10.0 mi NE 16.1 mph - N/A   Clear
6:52 PM 52.0 °F - 37.0 °F 57% 30.05 in 10.0 mi NE 11.5 mph - N/A   Clear
7:52 PM 51.1 °F - 36.0 °F 56% 30.09 in 10.0 mi NE 11.5 mph - N/A   Partly Cloudy
8:52 PM 50.0 °F - 36.0 °F 59% 30.12 in 10.0 mi NE 10.4 mph - N/A   Scattered Clouds
9:52 PM 50.0 °F - 35.1 °F 57% 30.13 in 10.0 mi NE 8.1 mph - N/A   Clear
10:52 PM 48.9 °F - 35.1 °F 59% 30.14 in 10.0 mi NNE 6.9 mph - N/A   Clear
11:52 PM 48.0 °F - 35.1 °F 61% 30.14 in 10.0 mi NE 8.1 mph - N/A   Partly Cloudy